This is the latest recevied weather packets stored in our database for station/object KN6ETB-1. If no packets are shown the sender has not sent any weather packets the latest 10 day(s).
| Time | Temp. | Humidity | Pressure | Rain* | Wind** | Luminosity | Snow |
|---|---|---|---|---|---|---|---|
| 1777919826 | 16.67° C | 65% | 1012.8 hPa | 0 mm | - | 152 W/m² | - |
| 1777919523 | 16.67° C | 66% | 1012.5 hPa | 0 mm | - | 163 W/m² | - |
| 1777919221 | 16.67° C | 67% | 1012.6 hPa | 0 mm | - | 177 W/m² | - |
| 1777918918 | 16.67° C | 68% | 1012.5 hPa | 0 mm | - | 200 W/m² | - |
| 1777918615 | 16.67° C | 66% | 1012.6 hPa | 0 mm | - | 179 W/m² | - |
| 1777918313 | 16.67° C | 66% | 1012.4 hPa | 0 mm | - | 177 W/m² | - |
| 1777918012 | 16.67° C | 65% | 1012.7 hPa | 0 mm | - | 147 W/m² | - |
| 1777917710 | 17.22° C | 65% | 1012.5 hPa | 0 mm | - | 128 W/m² | - |
| 1777917407 | 16.67° C | 65% | 1012.4 hPa | 0 mm | - | 131 W/m² | - |
| 1777917103 | 17.22° C | 64% | 1012.3 hPa | 0 mm | - | 144 W/m² | - |
| 1777916802 | 17.22° C | 66% | 1012.2 hPa | 0 mm | - | 147 W/m² | - |
| 1777916498 | 16.67° C | 65% | 1012.3 hPa | 0 mm | - | 170 W/m² | - |
| 1777916195 | 16.67° C | 66% | 1012.2 hPa | 0 mm | - | 168 W/m² | - |
| 1777915893 | 16.67° C | 66% | 1012.3 hPa | 0 mm | - | 207 W/m² | - |
| 1777915589 | 16.11° C | 67% | 1012.2 hPa | 0 mm | - | 209 W/m² | - |
| 1777915285 | 16.11° C | 69% | 1012.1 hPa | 0 mm | - | 220 W/m² | - |
| 1777914982 | 16.11° C | 70% | 1012.2 hPa | 0 mm | - | 242 W/m² | - |
| 1777914679 | 16.11° C | 71% | 1012.3 hPa | 0 mm | - | 231 W/m² | - |
| 1777914375 | 15.56° C | 73% | 1012.3 hPa | 0 mm | - | 222 W/m² | - |
| 1777914073 | 15.56° C | 72% | 1012.1 hPa | 0 mm | - | 156 W/m² | - |
| 1777913769 | 15.56° C | 73% | 1012 hPa | 0 mm | - | 119 W/m² | - |
| 1777913465 | 15° C | 74% | 1012 hPa | 0 mm | - | 120 W/m² | - |
| 1777913162 | 15° C | 75% | 1012.1 hPa | 0 mm | - | 112 W/m² | - |
| 1777912858 | 15° C | 75% | 1011.9 hPa | 0 mm | - | 137 W/m² | - |
| 1777912554 | 15° C | 76% | 1012.1 hPa | 0 mm | - | 138 W/m² | - |
* Rain latest hour (hover to see other rain measurements)
** Current wind speed in m/s (hover to see current wind gust speed)